Home > Weather > Recife > Past weeks

Flag for Brazil Past Weather in Recife, Pernambuco, Brazil — Yesterday and Last 2 Weeks

Now
81 °F

Partly sunny.


Feels Like: 85 °F
Forecast: 74 / 84 °F
Wind: 7 mph from Southwest

Location: Recife Aeroporto

Current Time: May 27, 2016 at 11:15:39 AM

Latest Report: May 27, 2016 at 10:00 AM


Visibility: N/A

Pressure: 30.01 "Hg

Humidity: 74%

Dew Point: 72 °F

Location of RecifeLocation

Past Weather in Recife — Graph

°F

Recife Temperature Yesterday

Maximum temperature yesterday: 84 °F (at 11:00 AM)
Minimum temperature yesterday: 73 °F (at 2:00 AM)
Average temperature yesterday: 78 °F

High & Low Weather Summary for the Past Weeks

 TemperatureHumidityPressure
High86 °F (May 12, 11:00 AM)94% (May 13, 2:00 AM)30.07 "Hg (May 13, 2:00 AM)
Low73 °F (May 15, 4:00 AM)62% (May 12, 12:00 PM)29.89 "Hg (May 17, 2:00 PM)
Average80 °F79%29.98 "Hg
* Reported May 12 9:00 AM — May 27 9:00 AM, Recife, Weather by CustomWeather, © 2016

Note: Actual official high and low records may vary slightly from our data, if they occured in-between our weather recording intervals... More about our weather records

Advertising

Recife Weather History for the Previous 24 Hours

Scroll right to see more
 ConditionsComfort  
Time TempWeatherWind HumidityBarometerVisibility
9:00 AM
Fri, May 27
79 °FScattered clouds.6 mph84%30.01 "HgN/A
8:00 AM75 °FPartly sunny.5 mph89%30.01 "HgN/A
7:00 AM75 °FScattered showers. Partly sunny.5 mph83%N/AN/A
6:00 AM73 °FSunny.3 mph94%29.95 "Hg10 mi
5:00 AM73 °FPassing clouds.6 mph94%29.95 "HgN/A
4:00 AM73 °FPassing clouds.5 mph94%29.92 "HgN/A
3:00 AM73 °FLight rain. Passing clouds.7 mph94%29.95 "Hg4 mi
2:00 AM73 °FPassing clouds.5 mph89%29.92 "HgN/A
1:00 AM73 °FPassing clouds.6 mph94%29.95 "HgN/A
12:00 AM73 °FPassing clouds.5 mph94%29.98 "HgN/A
11:00 PM
Thu, May 26
75 °FPassing clouds.3 mph89%29.98 "HgN/A
10:00 PM75 °FPassing clouds.6 mph89%29.98 "HgN/A
9:00 PM75 °FPassing clouds.3 mph89%29.98 "HgN/A
8:00 PM75 °FPassing clouds.3 mph89%29.95 "HgN/A
7:00 PM77 °FPassing clouds.5 mph83%29.95 "HgN/A
6:00 PM79 °FPassing clouds.10 mph74%29.92 "HgN/A
5:00 PM79 °FPassing clouds.9 mph84%29.92 "HgN/A
4:00 PM81 °FScattered clouds.15 mph74%29.89 "HgN/A
3:00 PM82 °FPassing clouds.14 mph70%29.89 "HgN/A
2:00 PM84 °FScattered clouds.15 mph66%29.89 "HgN/A
1:00 PM84 °FScattered clouds.15 mph66%29.92 "HgN/A
12:00 PM84 °FScattered clouds.10 mph70%29.95 "HgN/A
11:00 AM84 °FScattered clouds.14 mph66%29.95 "HgN/A
Weather by CustomWeather, © 2016

See weather overviewHow to use our weather pages